GFSSW_925_thetae_273.txt.gz
Theta_e
306 306 307 307 307 306 307 307 308 308 308 308 308 306 305 301 301 302 302 303 304 303 300 300 300 301 302 304 305 305 307 307 307 307 308 306 303 303 302 302 302 303 303 303 302
306 306 306 307 307 307 307 308 308 308 308 308 309 307 305 304 303 300 301 303 303 300 300 301 301 301 303 303 303 306 306 305 304 304 304 302 301 302 302 303 304 304 305 304 304
305 304 305 306 307 307 308 308 308 308 308 308 307 304 304 306 302 301 299 301 299 300 301 302 301 302 303 303 303 303 305 303 301 302 302 302 302 303 303 304 304 304 305 305 304
303 303 303 304 307 307 307 308 308 307 305 305 303 303 305 307 304 301 297 298 299 300 302 303 303 303 303 303 303 305 302 301 302 301 301 302 304 304 304 304 305 305 305 304 304
300 302 302 303 304 305 305 305 303 303 302 303 303 300 302 301 300 299 298 298 300 301 302 303 304 304 304 304 304 304 303 303 304 304 304 304 304 304 304 305 305 304 304 304 304
301 302 302 303 303 301 299 299 300 300 301 300 299 298 300 301 300 298 298 299 300 302 302 303 303 303 304 304 305 304 305 304 304 304 304 304 304 304 304 304 304 303 304 304 304
301 301 302 302 302 299 296 300 299 300 299 300 300 300 300 301 300 298 299 299 299 301 302 301 302 304 304 305 303 304 305 305 305 304 303 302 304 304 304 303 303 303 303 303 302
302 301 302 301 301 298 295 299 298 299 299 297 300 302 300 298 298 298 299 300 300 302 302 302 302 304 303 303 303 304 304 307 306 304 303 302 305 305 304 303 303 303 303 301 299
302 301 302 301 300 296 295 299 296 296 298 295 299 300 298 296 298 297 298 300 301 301 301 301 303 303 305 307 308 308 308 307 305 304 303 303 304 304 304 303 302 302 300 298 299
304 301 302 301 299 296 296 300 299 297 297 295 296 300 298 298 297 297 299 299 301 302 304 304 304 307 306 308 308 305 306 305 306 305 303 303 304 304 303 302 302 299 299 299 299
311 304 302 302 300 297 297 299 301 302 298 297 297 297 297 297 296 300 299 300 301 304 307 303 311 307 303 303 303 303 305 306 306 304 302 304 303 303 301 300 300 300 299 298 298
312 310 303 303 300 299 298 300 298 297 301 295 295 296 296 296 300 301 301 303 304 306 304 307 310 302 302 303 303 305 308 308 304 303 303 304 303 303 301 300 299 299 298 298 297
313 312 307 304 300 299 298 297 295 297 302 296 295 296 296 297 299 300 301 301 303 305 304 308 304 301 302 303 304 305 306 305 304 303 303 302 305 303 302 301 299 298 298 297 296
315 313 309 303 302 299 299 295 295 296 310 303 296 296 298 298 301 298 299 301 304 306 303 306 302 301 303 303 302 306 302 302 303 302 308 302 307 303 303 301 299 298 297 296 294
315 313 309 307 300 300 297 295 296 299 323 299 296 294 297 300 299 301 298 301 303 304 302 311 302 303 304 302 301 304 302 302 300 302 303 305 306 303 301 301 298 297 296 295 293
314 312 308 304 299 295 295 295 298 315 323 302 295 296 301 299 300 300 301 300 299 300 302 304 299 299 302 301 301 301 303 304 300 304 310 302 301 302 302 297 297 297 295 294 292
312 311 307 304 300 296 296 298 317 321 299 309 300 296 297 300 300 300 302 303 304 308 311 303 303 299 298 303 302 302 305 307 308 309 307 300 301 304 299 297 297 296 294 293 292
313 310 304 299 295 296 296 307 321 314 314 294 296 296 299 298 300 299 302 305 300 300 302 304 306 304 298 302 303 301 302 304 305 305 304 302 303 302 297 298 296 295 293 292 291
311 303 298 296 297 298 305 316 322 312 297 297 298 300 305 298 298 301 302 304 302 300 304 303 304 297 297 299 300 303 305 299 301 300 300 303 302 301 298 298 296 295 293 291 290
306 300 297 297 298 297 305 315 313 296 296 297 307 298 304 303 301 303 302 301 301 299 298 299 302 300 299 299 299 303 298 303 302 304 303 303 304 303 299 297 296 295 293 291 289
305 302 295 296 297 300 312 312 303 295 296 298 300 299 298 302 300 304 302 300 300 298 298 298 298 303 296 301 304 302 303 301 300 301 303 302 301 299 297 296 295 294 292 290 289
303 306 295 296 303 299 308 305 294 296 295 297 296 296 299 300 301 301 302 300 299 298 299 298 300 301 304 299 298 301 303 300 300 303 301 301 301 299 297 296 295 294 292 290 289
300 298 294 296 308 307 299 297 296 296 296 296 297 296 295 298 300 300 299 297 298 298 298 298 300 302 303 299 297 299 301 300 299 298 300 301 301 301 298 297 295 294 291 290 289
300 305 297 296 299 305 305 305 303 296 296 296 297 295 295 297 297 299 299 297 297 297 296 296 298 299 301 302 297 297 298 299 299 301 302 302 302 300 298 297 294 294 292 290 289
303 306 303 304 303 303 304 305 303 303 297 297 296 296 297 298 297 296 297 298 297 297 297 297 298 296 297 298 297 298 296 295 297 298 299 302 297 298 297 296 294 294 292 290 290
301 302 298 303 301 303 303 305 304 301 299 298 297 297 296 298 298 299 298 298 299 296 297 294 297 290 293 293 293 295 295 297 295 296 297 296 295 296 297 296 295 294 291 289 288
299 299 304 303 302 303 305 305 304 301 301 300 297 297 297 297 297 296 296 295 296 296 296 294 296 294 298 291 292 299 297 297 298 297 297 298 302 296 294 295 294 293 290 288 287

GFSSW_925_thetae_276.txt.gz
Theta_e
306 306 306 307 307 308 308 308 308 308 309 309 309 307 303 302 304 301 303 303 305 303 302 303 301 301 303 305 305 306 307 307 307 307 308 304 302 302 302 301 300 301 301 302 303
306 306 306 307 308 308 308 308 308 308 308 309 309 306 304 304 306 301 302 303 303 301 302 302 302 302 304 304 304 306 307 305 303 302 301 301 301 301 301 301 302 302 304 304 305
305 306 306 307 308 308 308 308 308 308 308 307 305 304 304 305 305 302 299 302 301 301 303 302 303 303 304 305 304 305 305 303 302 302 301 301 301 303 303 302 302 303 303 304 304
301 302 303 305 307 307 308 307 306 305 303 304 303 302 304 308 305 301 299 300 301 302 304 304 304 304 305 305 305 305 303 302 303 303 302 303 303 303 303 303 303 303 303 303 303
301 302 302 303 302 304 306 303 300 300 300 301 302 300 303 302 301 299 299 300 301 302 303 304 304 305 306 305 305 305 305 305 305 304 304 304 303 303 303 302 303 303 303 303 303
302 301 302 302 302 300 296 300 300 300 300 299 298 300 302 302 301 299 299 300 301 303 303 303 304 303 305 305 305 304 305 305 305 304 304 303 303 302 303 303 303 303 303 302 302
302 301 301 302 301 298 296 300 298 300 298 299 299 301 301 301 300 298 300 300 301 302 303 302 303 305 305 306 304 304 305 305 306 305 304 302 303 303 302 304 303 303 303 302 301
303 302 302 302 300 296 296 299 297 297 299 296 300 303 301 298 298 299 299 301 301 302 302 302 303 305 304 304 305 305 305 306 306 305 304 302 303 303 303 302 302 302 302 301 299
307 303 302 302 301 298 296 299 297 296 297 295 299 299 299 297 298 298 299 300 301 302 302 301 304 304 307 307 310 308 304 305 305 305 305 304 302 302 303 302 301 301 299 299 298
311 309 305 303 302 300 299 298 298 299 298 296 297 301 298 298 298 298 300 300 302 303 305 305 305 309 306 306 305 303 304 305 305 305 305 303 302 302 302 301 301 299 299 299 298
313 312 310 305 303 302 301 301 303 303 298 298 297 298 298 298 297 301 301 301 303 305 308 303 312 307 303 303 303 303 304 305 306 304 303 303 302 302 302 300 300 299 298 297 296
315 314 314 309 304 302 300 301 298 297 300 296 296 297 297 297 300 301 301 304 301 305 306 309 312 303 302 303 303 304 305 305 304 303 302 302 302 302 302 300 300 299 296 296 296
316 315 314 311 307 301 297 297 296 298 302 297 296 297 297 298 300 301 301 302 300 302 302 306 305 302 302 303 303 304 304 301 302 302 302 302 302 303 302 301 299 298 296 296 295
316 315 314 313 305 300 299 296 296 297 306 305 297 297 299 299 301 299 300 301 304 302 303 306 302 302 303 303 302 301 303 302 302 297 299 302 300 302 302 302 300 297 295 295 293
316 315 314 311 303 300 298 296 297 300 316 300 297 295 298 300 300 301 299 301 303 303 301 306 302 303 303 303 301 302 301 301 302 297 298 302 298 302 300 301 297 296 296 294 292
315 313 312 306 302 297 296 297 300 315 317 299 296 297 300 300 301 300 302 300 300 300 302 303 300 299 302 300 301 302 301 302 301 298 302 297 296 299 301 299 296 296 295 294 292
313 312 310 307 302 298 297 300 315 318 301 307 300 297 298 300 301 300 302 304 304 303 306 304 303 299 298 302 302 300 298 299 298 301 300 293 298 299 299 297 296 295 294 292 291
312 311 306 304 299 297 300 307 319 315 309 296 296 297 300 298 301 299 302 305 300 300 301 300 300 300 299 301 301 301 298 296 296 299 300 294 296 300 297 297 295 294 293 292 290
312 305 301 298 298 300 305 314 318 311 298 299 301 302 305 298 298 301 302 303 302 300 301 300 302 297 298 299 299 301 300 298 294 293 298 296 299 299 297 292 294 294 293 291 289
308 302 298 297 299 299 305 316 312 297 297 298 308 302 302 302 300 302 304 302 301 300 297 298 297 299 298 299 298 298 298 295 294 297 296 296 295 299 290 289 291 292 290 289 289
306 303 297 297 298 300 311 311 306 297 297 299 302 298 298 300 300 304 302 300 300 298 298 297 294 298 296 294 298 297 296 295 294 297 300 298 297 292 289 287 289 289 291 288 288
304 305 295 297 302 300 307 305 296 297 296 297 296 298 299 301 301 299 303 301 299 297 298 298 299 295 297 301 298 300 298 299 293 293 299 300 299 293 289 287 285 287 290 289 288
301 299 295 297 308 306 300 299 297 298 298 296 298 297 296 298 298 300 300 297 298 298 298 297 295 293 299 297 296 295 299 299 296 297 294 297 297 290 289 287 285 288 286 288 289
300 304 297 296 299 304 305 305 303 297 297 296 299 296 297 297 297 298 299 297 297 298 297 296 298 293 295 293 291 294 297 298 297 291 295 297 298 298 292 288 284 285 284 286 289
303 303 301 303 302 303 305 306 304 302 297 296 297 298 298 298 297 295 297 297 297 297 297 296 292 296 296 295 295 295 295 294 294 296 292 295 291 296 295 294 284 285 283 286 285
301 302 298 302 302 303 304 305 305 303 298 299 298 298 298 297 299 299 298 298 298 296 296 295 290 289 288 293 293 292 293 293 293 292 291 294 294 294 292 284 284 283 283 283 285
301 300 304 304 303 304 304 304 304 301 300 301 297 299 297 297 297 297 295 295 296 296 297 292 291 287 290 292 289 289 289 290 291 289 289 290 291 285 286 283 282 282 282 282 282

GFSSW_925_thetae_279.txt.gz
Theta_e
307 307 307 308 308 308 309 309 309 308 308 309 309 302 302 301 301 299 302 304 305 304 302 302 301 302 303 302 302 303 301 302 301 301 302 298 299 298 299 300 299 300 300 301 304
306 307 307 308 308 308 308 309 309 309 308 306 301 302 302 303 306 301 302 304 304 303 302 302 301 301 300 302 300 302 300 302 299 299 299 298 298 298 300 298 300 300 302 303 303
302 303 306 307 308 308 308 308 307 304 304 303 303 303 304 307 305 301 301 302 302 302 303 303 303 301 301 301 301 301 301 300 300 301 300 300 300 300 301 301 301 300 301 301 302
301 302 302 302 304 307 308 305 302 301 301 302 300 301 302 306 303 300 300 301 301 302 303 304 302 302 302 303 303 304 302 302 301 303 302 301 301 301 301 300 300 299 301 302 301
301 301 301 301 300 298 297 300 300 300 300 299 300 300 302 299 300 299 299 300 301 303 302 302 302 302 303 304 304 304 304 304 304 303 303 302 301 301 301 299 299 302 302 301 301
302 302 301 302 300 297 296 299 298 299 298 298 299 301 302 298 301 299 300 300 301 302 302 302 303 302 304 303 304 302 303 303 303 303 303 303 301 301 300 300 300 301 301 301 299
304 303 302 302 301 298 297 297 297 296 298 298 299 302 300 299 299 299 299 301 302 302 302 302 303 303 303 305 303 303 303 303 304 304 303 301 301 300 299 300 301 301 301 299 298
309 307 304 304 303 301 299 298 297 296 298 296 300 302 299 296 298 298 299 301 301 302 302 301 303 303 303 303 303 304 302 302 304 303 303 301 301 301 300 300 300 299 299 298 298
313 312 312 309 306 303 300 298 298 298 296 297 299 299 296 297 298 298 300 300 301 302 302 302 303 302 303 303 302 300 296 303 302 303 303 302 302 301 300 300 299 298 297 298 297
314 314 314 314 309 305 302 300 298 300 298 298 298 300 297 298 298 299 300 301 301 301 304 303 302 299 296 296 294 296 297 302 302 303 303 301 300 301 299 299 298 297 298 296 296
316 315 315 315 312 305 305 302 300 303 298 296 296 298 297 297 298 300 301 301 302 303 301 302 301 296 300 301 302 302 302 301 302 303 301 301 300 300 300 298 297 297 296 296 295
316 316 315 315 312 306 302 298 297 298 298 296 296 296 297 297 299 300 301 302 296 298 301 301 301 301 301 302 302 301 296 297 300 301 300 300 300 300 300 297 297 297 297 294 294
317 316 315 315 309 303 298 296 296 298 299 297 295 296 296 298 299 300 300 301 296 295 296 298 303 301 302 302 300 300 297 297 299 299 298 299 297 301 300 298 298 298 295 293 293
316 316 315 314 307 302 300 296 296 297 298 302 296 297 298 298 301 299 300 300 302 295 299 300 301 301 302 301 298 296 301 300 300 293 294 298 295 299 300 300 299 295 293 292 290
317 316 314 313 306 302 299 297 297 300 308 299 296 295 297 299 299 300 299 300 302 299 292 297 301 302 300 302 299 298 300 300 300 289 295 294 293 298 300 300 296 294 294 292 290
313 314 313 309 308 301 299 297 299 307 308 295 295 296 295 299 300 299 300 299 299 300 300 296 299 298 299 299 299 300 297 296 295 289 291 291 292 297 297 299 296 294 293 292 290
311 312 310 308 305 301 298 300 308 307 298 298 296 296 296 297 299 299 300 302 299 293 294 297 299 298 297 300 300 295 289 287 290 291 296 286 295 297 297 295 295 293 292 291 290
312 311 309 306 303 300 302 306 313 303 309 297 295 296 298 297 300 297 299 299 299 298 290 290 291 293 299 299 295 297 291 289 288 293 293 286 294 296 296 294 294 292 291 291 289
312 308 305 301 299 302 304 312 304 311 301 298 299 296 295 297 294 295 300 298 299 295 293 291 295 296 298 299 295 295 293 295 287 283 292 290 292 296 295 288 291 291 291 290 289
310 304 299 298 299 301 304 308 308 299 297 297 304 300 293 295 297 293 299 299 300 297 293 295 289 291 295 298 295 293 295 290 286 290 290 290 287 296 290 287 287 290 288 287 286
307 303 297 298 300 300 310 309 307 298 297 298 300 295 296 292 296 296 298 299 298 297 297 291 286 290 295 289 291 290 290 289 288 293 290 290 293 288 288 285 285 287 287 285 284
305 305 296 297 302 300 307 305 297 296 295 296 296 296 294 295 298 295 300 298 297 293 296 296 294 292 292 297 297 293 291 294 290 286 292 295 297 284 284 284 283 286 285 285 280
300 298 295 297 308 305 301 299 296 298 298 296 295 296 296 293 296 298 298 297 297 296 296 296 288 286 291 293 293 292 295 295 289 295 295 290 292 284 279 281 283 284 285 281 282
299 303 296 295 297 303 305 304 301 296 297 296 298 296 296 294 296 295 298 296 296 297 297 296 297 290 292 288 285 291 295 297 293 285 289 292 293 295 293 285 283 282 281 277 277
302 303 299 301 301 302 303 305 303 303 296 295 296 296 296 298 296 294 296 297 296 297 296 293 292 294 294 292 289 294 293 291 293 294 291 294 287 292 293 289 290 282 274 281 278
302 301 297 301 300 301 304 304 305 303 297 298 295 297 296 294 298 297 296 297 296 295 295 295 288 286 286 292 293 292 292 291 291 292 291 294 294 294 292 277 280 281 274 280 274
302 301 303 304 298 302 303 303 302 301 299 298 296 297 296 298 296 295 294 294 295 295 296 292 287 284 286 290 287 290 287 287 286 283 285 286 289 278 282 280 278 279 276 278 274

GFSSW_925_thetae_285.txt.gz
Theta_e
305 308 308 309 309 309 309 309 306 304 303 301 302 301 302 303 301 301 303 304 306 307 303 302 302 301 301 299 299 298 299 301 301 301 301 297 298 298 296 297 298 298 299 301 302
302 302 304 306 308 309 309 306 300 300 301 302 303 303 303 305 301 299 302 304 305 303 302 302 301 300 299 300 299 298 296 299 298 298 298 299 299 299 300 299 299 299 300 301 302
301 302 302 301 301 306 302 301 300 300 301 300 300 301 302 306 299 299 301 303 302 302 303 302 302 300 300 300 300 299 299 299 300 299 299 300 300 299 300 300 298 299 300 299 300
303 303 303 303 302 301 299 299 299 299 299 300 300 300 301 302 301 299 299 301 301 302 303 302 300 300 300 301 302 299 302 302 299 302 301 301 301 300 299 299 299 297 298 299 299
309 308 307 307 305 303 300 298 298 298 298 299 299 301 302 297 299 298 299 301 301 302 302 301 301 301 301 302 302 302 301 301 301 301 301 301 301 300 299 297 296 296 298 298 298
312 314 314 312 309 304 302 298 298 297 297 298 298 301 300 298 300 298 300 301 301 301 301 301 302 302 301 302 302 301 301 301 301 302 302 302 300 299 299 298 298 298 298 298 297
313 314 314 314 313 308 304 301 298 297 297 297 300 300 297 297 298 298 300 300 301 301 301 301 302 301 302 303 301 301 302 299 302 302 302 300 299 299 297 298 299 298 298 297 296
314 314 315 315 315 311 306 304 299 298 296 298 299 299 295 297 298 299 300 300 302 302 301 301 302 302 302 301 300 297 298 298 300 301 301 300 300 299 297 298 297 297 296 297 296
316 316 316 315 315 312 310 305 301 299 297 297 298 297 295 297 297 298 300 300 301 302 303 302 302 299 298 302 298 295 294 300 299 300 301 302 300 299 298 298 297 296 295 295 295
317 317 317 316 315 314 311 304 303 302 298 298 297 298 297 296 297 298 300 301 301 301 302 301 298 296 294 295 295 294 297 299 299 300 301 300 300 299 297 296 295 294 294 294 295
317 317 316 316 315 312 311 305 304 305 298 295 294 296 296 296 298 300 300 301 300 299 300 300 298 296 299 298 298 299 300 300 298 298 298 298 297 297 297 296 295 293 293 293 293
318 316 315 315 314 310 308 297 297 298 300 297 295 295 296 296 298 298 301 299 295 295 298 296 297 299 299 300 301 299 294 294 297 298 298 297 297 297 297 296 296 293 292 294 292
317 315 315 314 314 308 300 297 297 297 299 300 294 295 295 297 298 298 300 299 295 293 292 295 301 300 300 300 299 299 295 294 299 298 296 295 296 295 297 297 295 294 293 292 291
316 315 316 313 311 304 299 297 297 297 300 303 295 296 297 297 300 298 299 300 299 294 297 296 301 300 301 300 298 295 298 299 299 293 292 295 295 296 297 297 296 294 292 291 290
315 313 313 311 309 303 300 298 297 299 304 298 295 294 296 298 298 299 298 299 301 298 292 296 301 300 299 301 297 298 298 299 295 286 293 290 291 296 296 298 297 295 292 290 289
310 311 310 309 307 302 300 298 299 302 302 296 294 295 296 297 298 298 300 298 297 299 298 294 297 298 298 298 298 296 293 290 290 284 289 287 290 296 295 295 296 295 292 290 289
310 310 310 307 305 303 301 301 302 304 298 298 295 295 295 296 298 297 298 299 298 293 290 294 297 297 296 298 296 292 284 286 288 286 291 279 291 295 293 294 294 294 292 289 289
310 310 308 305 303 302 303 300 296 293 297 300 295 297 298 295 297 297 297 298 297 294 287 289 293 291 297 297 291 295 287 288 284 287 288 282 292 293 293 293 292 291 290 289 289
310 308 306 302 303 303 300 301 298 297 304 300 301 297 294 297 294 293 297 295 298 293 291 290 292 295 296 298 294 290 291 289 283 278 285 286 288 291 292 288 291 290 288 288 288
309 307 302 301 302 304 304 306 300 303 296 298 306 301 296 292 297 291 295 296 299 296 290 292 291 290 294 296 293 289 291 290 285 287 284 284 279 290 287 288 288 290 289 287 286
308 304 300 300 302 300 307 304 304 303 296 298 302 299 300 295 293 291 295 297 297 296 293 287 286 289 294 290 290 294 288 288 285 289 287 286 289 284 286 284 284 285 286 285 284
305 305 298 300 303 300 307 305 300 299 295 297 297 300 301 295 294 290 296 296 295 292 295 294 291 288 291 293 292 290 288 292 290 285 286 290 293 285 283 278 274 283 284 284 281
301 299 296 299 304 305 302 302 296 299 297 297 298 297 295 294 296 297 297 297 294 295 295 296 287 286 294 292 293 292 293 293 289 291 289 290 293 280 274 280 279 279 284 283 281
300 304 297 296 298 302 304 305 305 296 297 296 297 295 295 293 295 296 297 296 296 296 298 296 293 290 296 293 285 292 295 296 296 289 294 294 295 295 295 293 288 279 280 280 277
301 303 298 301 301 301 303 304 304 303 296 295 294 296 295 295 295 293 296 296 295 297 296 293 288 292 291 290 286 293 293 294 295 297 293 297 288 293 294 292 291 278 277 276 278
301 301 298 296 299 300 303 304 305 303 298 298 294 298 296 297 300 298 296 295 295 295 295 293 288 285 283 292 292 291 292 294 293 294 294 294 294 294 294 290 281 282 275 278 275
301 301 301 303 300 301 303 303 302 299 299 299 296 297 296 297 296 296 294 294 295 296 296 294 290 287 289 285 284 291 292 292 288 283 291 292 293 290 289 282 277 281 275 279 277

GFSSW_925_thetae_288.txt.gz
Theta_e
305 305 308 309 309 310 310 309 308 303 304 304 304 303 302 303 300 301 303 305 306 308 302 302 301 301 301 298 298 297 301 301 301 300 301 297 298 297 296 297 297 298 298 300 302
302 304 304 303 306 309 308 302 301 301 302 302 302 303 304 306 300 298 301 305 306 306 302 302 300 300 298 299 298 296 297 299 297 297 298 298 298 299 299 298 299 299 299 301 301
305 305 306 306 304 303 302 300 300 300 300 300 300 300 301 304 298 299 300 302 302 302 302 302 301 300 300 299 299 298 298 298 299 298 299 300 299 298 299 299 296 298 298 298 300
311 313 313 310 306 304 302 298 298 299 298 299 300 301 302 302 301 299 299 301 301 302 302 302 299 300 300 300 301 299 301 300 298 301 300 300 300 300 298 299 299 296 298 298 298
314 314 314 314 313 308 304 300 298 297 298 298 298 301 301 297 299 298 299 300 301 302 301 301 300 300 300 301 301 301 301 300 301 301 300 300 300 299 298 297 296 296 297 296 296
314 314 314 314 314 310 307 305 299 297 297 297 299 299 299 297 299 298 300 301 301 302 301 301 301 300 300 302 301 300 301 301 301 301 301 301 300 299 298 297 297 298 298 297 296
314 315 315 315 315 311 310 308 301 298 296 298 300 301 296 296 298 299 300 301 301 301 301 301 302 301 301 302 301 301 301 299 301 301 301 299 297 298 297 298 297 297 297 297 296
315 316 316 316 315 314 312 309 302 299 297 298 299 298 296 297 298 299 301 300 302 302 301 302 302 301 301 300 298 297 297 296 299 300 300 299 297 298 297 297 297 296 295 295 295
316 317 316 316 316 314 312 309 303 299 299 297 298 297 296 297 297 298 300 300 301 302 301 302 301 298 299 300 297 295 295 299 298 299 300 301 299 297 297 297 296 294 293 294 294
316 317 317 316 315 314 313 309 305 302 300 298 297 299 296 295 296 299 300 301 301 301 301 301 297 295 294 295 296 294 296 298 298 298 299 299 299 298 297 295 294 293 293 293 294
317 317 316 315 314 312 311 307 305 305 300 295 294 296 295 296 298 299 300 300 299 298 299 299 297 296 298 298 296 297 299 299 297 298 298 298 297 297 297 293 293 292 292 293 293
317 316 315 315 313 311 309 297 297 298 301 298 294 295 296 296 297 297 300 298 295 296 297 295 296 298 298 299 300 299 294 294 296 297 298 296 297 296 295 294 295 295 293 292 293
317 317 315 314 311 309 300 297 297 297 299 300 294 294 294 297 298 298 299 298 294 294 293 296 301 299 299 300 299 299 295 293 298 298 295 294 294 294 295 296 296 294 293 292 292
317 315 314 311 310 305 299 297 297 297 298 303 295 295 296 296 299 298 298 299 298 294 297 296 300 300 300 300 298 295 297 299 298 291 291 294 293 295 296 295 296 295 291 291 289
311 310 311 309 309 303 300 297 297 299 306 298 295 294 295 298 298 298 298 299 301 298 293 297 301 300 299 300 297 297 297 298 294 285 291 289 290 294 295 297 295 295 292 290 289
309 310 310 308 306 302 300 299 298 304 303 298 294 295 297 297 297 297 299 297 297 299 298 294 297 298 298 297 297 294 291 289 287 282 287 285 288 294 294 294 296 295 293 291 289
309 310 309 307 304 303 303 300 302 302 298 299 296 296 296 297 298 297 297 298 298 295 292 293 297 296 296 298 295 292 285 287 289 286 291 278 290 295 293 292 293 293 291 291 288
309 309 307 304 303 303 303 298 298 293 293 301 295 298 299 295 296 295 296 297 296 293 286 289 294 292 296 296 291 294 287 288 286 288 287 280 290 294 291 291 291 290 289 289 288
309 308 306 303 303 303 301 299 300 296 304 301 302 298 296 297 294 293 296 295 298 292 293 290 291 294 296 297 293 290 291 287 282 276 283 285 287 290 291 286 290 290 290 289 288
309 306 303 302 303 304 301 305 299 302 296 299 304 301 296 293 299 291 296 296 299 295 289 291 291 288 293 295 292 289 290 290 284 286 285 285 279 293 288 284 286 287 285 286 287
307 304 301 301 303 301 303 297 300 303 296 298 302 297 299 295 294 293 297 297 297 295 292 286 286 289 294 292 292 294 288 286 285 288 287 285 291 286 286 283 283 284 284 283 283
305 304 298 301 302 300 306 303 301 300 295 297 297 300 298 297 295 291 296 296 294 292 295 293 290 288 291 292 292 290 287 291 290 286 284 288 294 290 283 276 272 282 284 283 281
301 301 297 299 304 303 302 303 296 299 296 296 296 298 295 291 296 296 297 297 295 295 295 295 288 288 296 293 291 292 292 291 288 291 288 290 296 284 274 277 280 280 283 283 280
299 303 298 296 298 302 303 303 303 296 297 296 297 295 295 294 294 297 298 296 296 295 297 296 294 292 299 295 286 292 293 294 293 290 295 295 297 298 298 296 292 286 280 279 279
301 302 296 301 301 301 302 303 300 303 296 295 293 295 295 297 294 291 295 296 295 297 297 296 292 292 292 290 286 291 290 293 294 293 294 298 294 297 296 296 294 282 281 282 279
299 298 297 297 298 300 302 304 303 303 300 300 294 297 295 294 300 300 296 296 296 295 295 293 287 285 284 292 291 290 292 293 293 293 294 294 294 295 294 292 286 284 279 280 279
298 300 300 301 299 299 301 302 302 300 299 300 296 298 296 296 296 297 295 294 295 296 296 293 288 286 289 285 284 291 291 293 287 286 289 289 293 293 291 286 281 282 276 280 280

GFSSW_925_thetae_291.txt.gz
Theta_e
307 308 309 309 310 310 308 302 301 300 302 304 303 303 303 304 300 301 302 305 307 308 302 302 301 300 300 298 298 297 302 302 302 300 301 297 298 296 296 297 297 297 297 299 301
309 310 310 308 306 307 302 299 299 299 300 300 301 301 301 305 299 298 302 305 306 306 302 301 300 300 298 299 298 298 299 300 297 297 298 298 298 298 299 298 298 298 299 300 301
314 314 313 313 311 306 303 299 298 299 299 300 300 300 301 302 298 298 300 302 302 302 302 301 300 300 299 299 299 298 298 298 298 298 299 299 299 298 299 299 297 298 298 299 300
314 314 314 314 313 309 306 303 299 297 298 298 299 300 302 300 301 299 299 300 301 302 302 301 299 300 299 300 300 299 300 298 298 300 299 300 299 299 297 299 298 296 297 298 298
314 314 315 314 314 312 310 307 301 298 298 297 298 300 301 296 298 298 300 301 302 302 301 300 300 299 300 301 300 300 300 300 300 300 300 300 300 299 298 297 296 296 296 297 297
315 315 316 316 315 314 312 309 304 298 297 298 300 298 298 297 298 298 300 301 301 302 301 301 301 299 300 301 299 300 300 300 300 301 300 300 300 299 298 296 296 297 298 297 297
316 316 316 316 315 315 313 311 304 299 298 298 300 300 296 296 297 299 300 301 301 301 301 301 301 301 300 301 300 299 300 300 300 300 300 298 297 298 297 298 298 297 297 296 296
316 316 316 315 315 314 312 311 305 299 301 297 298 298 297 297 298 299 301 301 302 302 301 302 302 300 300 299 297 297 297 297 298 299 300 298 297 297 296 296 297 296 296 295 295
316 316 316 315 315 314 312 311 305 300 300 297 298 297 296 297 297 298 300 300 301 302 301 302 299 297 299 299 298 296 297 298 298 299 299 300 299 297 296 297 297 296 295 294 294
317 316 316 315 315 312 310 309 305 303 303 299 298 300 296 295 296 298 300 301 301 300 300 300 297 297 295 297 300 296 296 298 298 297 298 298 298 298 296 295 296 294 293 293 294
317 316 316 315 314 311 308 308 305 305 300 295 294 295 295 296 297 298 299 300 298 298 299 298 299 297 298 297 295 296 299 299 297 297 298 297 296 297 296 294 293 292 292 293 293
317 316 316 315 312 309 307 298 298 298 303 298 294 294 295 296 297 297 300 298 296 297 296 296 297 298 298 299 299 298 294 294 296 297 298 296 296 296 294 294 294 295 294 293 292
316 316 314 312 310 308 301 297 297 297 300 301 293 294 293 296 298 297 299 298 294 294 292 296 300 298 299 299 299 298 295 294 298 297 294 294 295 293 294 295 296 294 293 292 292
312 312 309 308 308 305 299 298 297 297 299 303 295 295 296 296 299 297 298 298 297 294 296 296 299 300 300 300 297 296 297 298 298 293 292 293 295 295 294 294 296 295 293 292 291
309 309 309 308 308 303 301 298 297 298 305 298 294 294 295 298 297 298 298 298 300 297 293 297 300 300 298 299 296 297 296 297 293 291 290 290 291 295 294 295 294 294 293 292 290
309 309 309 307 306 303 301 300 298 304 303 298 294 295 299 297 297 296 298 296 297 298 297 293 296 297 298 296 296 293 291 289 286 283 289 285 290 295 294 294 295 295 293 292 291
308 309 308 306 303 302 303 299 301 301 297 299 296 296 296 297 297 296 297 297 297 295 291 292 296 295 296 297 295 292 286 290 292 290 295 277 290 296 293 292 292 293 291 290 289
308 309 305 304 303 303 302 297 296 292 291 302 296 300 300 295 296 295 297 296 295 293 287 290 296 291 295 295 291 293 287 290 288 291 290 280 290 295 291 291 290 289 289 289 289
308 307 306 303 302 303 299 296 297 294 303 301 303 298 297 297 295 293 296 294 297 291 294 290 292 293 296 295 292 290 290 287 282 275 284 286 287 290 291 286 290 290 290 290 289
307 306 302 302 303 303 297 300 297 300 296 299 303 300 297 293 299 293 298 296 298 294 289 291 292 288 293 294 291 289 289 290 285 288 288 288 281 293 289 286 283 287 285 285 286
307 301 301 302 303 300 302 299 298 301 298 299 302 298 299 294 294 292 297 297 297 294 291 286 287 289 294 291 292 292 290 286 286 289 290 287 294 285 286 285 285 285 285 284 284
305 298 300 302 300 300 304 302 300 300 295 297 297 300 296 294 295 289 296 295 294 292 294 292 290 288 290 292 292 291 290 292 293 289 285 289 293 285 284 277 275 283 286 285 281
301 301 298 300 303 294 301 300 300 301 296 295 296 298 296 297 296 296 295 296 294 294 294 294 287 288 296 292 291 292 292 292 289 291 288 291 297 284 276 279 283 281 286 287 281
298 300 295 295 298 302 300 299 303 297 299 297 297 295 296 295 295 299 298 296 294 295 297 296 293 292 298 294 286 292 294 293 293 289 294 294 297 297 297 296 293 288 285 283 280
299 298 295 300 301 301 302 303 300 301 297 295 293 297 296 301 295 294 295 296 295 297 297 296 291 292 290 289 285 289 289 293 292 292 294 299 293 296 297 296 294 285 287 285 283
299 297 297 299 296 297 300 301 301 301 301 300 294 297 295 296 299 299 295 296 297 295 295 293 293 284 285 292 292 291 292 292 293 293 291 294 294 294 294 292 288 285 283 283 282
296 298 299 299 299 299 299 299 299 299 299 300 298 297 297 297 295 296 296 297 298 295 296 294 288 286 291 285 284 291 290 293 287 284 290 289 292 279 288 284 283 285 280 282 282